Regional Weather Roundup
Issued by NWS Northern Indiana

Home | Current Version | Previous Version | Graphics & Text | Print | Product List | Glossary On
Versions: 1 2 3 4 5 6 7 8 9 10 11 12 13 14 15 16 17 18 19 20 21 22 23 24 25 26 27 28 29 30 31 32 33 34 35 36 37 38 39 40 41 42 43 44 45 46 47 48 49 50
000
ASUS43 KIWX 221600
RWRIWX

KIWX WEATHER ROUNDUP
NATIONAL WEATHER SERVICE NORTHERN INDIANA
1200 PM EDT TUE JUL 22 2014

NOTE: "FAIR" INDICATES FEW OR NO CLOUDS BELOW 12,000 FEET WITH NO
SIGNIFICANT WEATHER AND/OR OBSTRUCTIONS TO VISIBILITY.

* THESE STATIONS ARE NOT UNDER NWS QUALITY CONTROL. THEY ALSO MAY NOT
  REPORT WEATHER SUCH AS PRECIPITATION OR FOG.

INZ001>027-221700-
NORTHERN INDIANA

CITY           SKY/WX    TMP DP  RH WIND       PRES   REMARKS
GARY*          MOSUNNY   82  66  57 SW12G25   30.03S
VALPARAISO     SUNNY     81  66  60 SW20G25   30.05S
KNOX*          SUNNY     82  65  57 SW14G21   30.03F
SOUTH BEND     SUNNY     83  66  56 S15       30.04F
ELKHART*       SUNNY     82  64  54 S9G18     30.05F
GOSHEN         SUNNY     83  66  56 SW17G24   30.05F
MONTICELLO*    SUNNY     81  69  67 S10       30.06F
WARSAW*        SUNNY     81  66  61 SW9       30.06F
ANGOLA*        SUNNY     84  66  54 SW12      30.06F
FORT WAYNE     MOSUNNY   85  64  49 SW13      30.08F
PERU/GRISSOM   SUNNY     83  69  62 SW13      30.08F

$$
INZ028>050-221700-
CENTRAL INDIANA

CITY           SKY/WX    TMP DP  RH WIND       PRES   REMARKS
LAFAYETTE      MOSUNNY   81  68  64 SW7       30.07F
KOKOMO*        MOSUNNY   84  68  58 SW15      30.08F
MUNCIE*        MOSUNNY   84  64  50 SW9       30.09F
INDIANAPOLIS   MOSUNNY   83  65  54 SW9       30.10S

$$
MIZ043>046-050>051-056>058-064>065-071>073-077>080-221700-
SOUTHWEST LOWER MICHIGAN

CITY           SKY/WX    TMP DP  RH WIND       PRES   REMARKS
BATTLE CREEK   SUNNY     82  66  58 S13G22    30.04F
BENTON HARBOR  SUNNY     81  67  62 SW10      30.03R
COLDWATER*     SUNNY     83  66  57 SW14      30.06F
HILLSDALE*     SUNNY     82  65  55 SW6       30.07F
HOLLAND        SUNNY     83  67  58 SW15G23   30.03R
GRAND RAPIDS   MOSUNNY   83  68  60 SW12      30.02S
KALAMAZOO      SUNNY     82  66  58 S13       30.03F
STURGIS*       SUNNY     81  68  65 S15       30.05F
THREE RIVERS*  FAIR      81  69  68 S16       30.04F

$$
OHZ001>008-015>018-024>025-221700-
NORTHWEST OHIO

CITY           SKY/WX    TMP DP  RH WIND       PRES   REMARKS
DEFIANCE       SUNNY     86  66  51 SW10G18   30.07F
FINDLAY        MOSUNNY   86  65  49 S9        30.08F
TOLEDO EXPRESS SUNNY     85  64  49 SW7G17    30.07F
TOLEDO METCALF SUNNY     86  63  45 SW9G18    30.07F
LIMA           MOSUNNY   85  69  58 SW9       30.10F

$$
&&



USA.gov is the U.S. government's official web portal to all federal, state and local government web resources and services.